Time,TemperatureF,DewpointF,PressureIn,WindDirection,WindDirectionDegrees,WindSpeedMPH,WindSpeedGustMPH,Humidity,HourlyPrecipIn,Conditions,Clouds,dailyrainin,SoftwareType,DateUTC
2013-03-10 00:00:00,48.3,33.3,30.30,ESE,103,0.0,1.0,56,0.00,,---,0.00,VWS V14.01,2013-03-10 05:00:00,
2013-03-10 00:05:00,48.3,33.8,30.30,East,99,0.0,2.0,57,0.00,,---,0.00,VWS V14.01,2013-03-10 05:05:00,
2013-03-10 00:10:00,48.3,33.8,30.30,ESE,104,1.0,1.0,57,0.00,,---,0.00,VWS V14.01,2013-03-10 05:10:00,
2013-03-10 00:15:00,48.3,33.8,30.30,East,95,1.0,2.0,57,0.00,,---,0.00,VWS V14.01,2013-03-10 05:15:00,
2013-03-10 00:21:00,48.4,33.4,30.30,East,84,2.0,3.0,56,0.00,,---,0.00,VWS V14.01,2013-03-10 05:21:00,
2013-03-10 00:26:00,48.5,33.5,30.30,ESE,114,1.0,3.0,56,0.00,,---,0.00,VWS V14.01,2013-03-10 05:26:00,
2013-03-10 00:31:00,48.6,33.6,30.30,ESE,103,1.0,3.0,56,0.00,,---,0.00,VWS V14.01,2013-03-10 05:31:00,
2013-03-10 00:36:00,48.6,33.6,30.30,ESE,110,2.0,3.0,56,0.00,,---,0.00,VWS V14.01,2013-03-10 05:36:00,
2013-03-10 00:41:00,48.7,33.7,30.30,ESE,105,1.0,3.0,56,0.00,,---,0.00,VWS V14.01,2013-03-10 05:41:00,
2013-03-10 00:46:00,48.8,33.8,30.30,ESE,117,1.0,3.0,56,0.00,,---,0.00,VWS V14.01,2013-03-10 05:46:00,
2013-03-10 00:51:00,48.9,33.5,30.30,East,99,2.0,3.0,55,0.00,,---,0.00,VWS V14.01,2013-03-10 05:51:00,
2013-03-10 00:56:00,49.0,33.5,30.29,ESE,113,2.0,3.0,55,0.00,,---,0.00,VWS V14.01,2013-03-10 05:56:00,
2013-03-10 00:58:00,48.2,33.7,30.27,East,84,1.0,4.0,57,0.00,,---,0.00,VWS V14.01,2013-03-10 05:58:00,
2013-03-10 00:59:00,48.1,33.6,30.27,East,91,2.0,4.0,57,0.00,,---,0.00,VWS V14.01,2013-03-10 05:59:00,
2013-03-10 01:01:00,48.9,33.9,30.29,ESE,106,0.0,2.0,56,0.00,,---,0.00,VWS V14.01,2013-03-10 06:01:00,
2013-03-10 01:06:00,48.7,33.7,30.29,East,101,0.0,2.0,56,0.00,,---,0.00,VWS V14.01,2013-03-10 06:06:00,
2013-03-10 01:11:00,48.4,33.4,30.29,ESE,114,2.0,3.0,56,0.00,,---,0.00,VWS V14.01,2013-03-10 06:11:00,
2013-03-10 01:16:00,48.3,33.8,30.29,ESE,105,2.0,3.0,57,0.00,,---,0.00,VWS V14.01,2013-03-10 06:16:00,
2013-03-10 01:21:00,48.3,33.8,30.29,East,81,1.0,3.0,57,0.00,,---,0.00,VWS V14.01,2013-03-10 06:21:00,
2013-03-10 01:26:00,48.3,33.8,30.29,ESE,103,2.0,2.0,57,0.00,,---,0.00,VWS V14.01,2013-03-10 06:26:00,
2013-03-10 01:31:00,48.4,33.9,30.29,ESE,105,1.0,3.0,57,0.00,,---,0.00,VWS V14.01,2013-03-10 06:31:00,
2013-03-10 01:36:00,48.7,33.7,30.29,ESE,103,3.0,3.0,56,0.00,,---,0.00,VWS V14.01,2013-03-10 06:36:00,
2013-03-10 01:41:00,48.7,33.7,30.28,East,97,3.0,3.0,56,0.00,,---,0.00,VWS V14.01,2013-03-10 06:41:00,
2013-03-10 01:46:00,48.7,33.7,30.28,East,89,3.0,5.0,56,0.00,,---,0.00,VWS V14.01,2013-03-10 06:46:00,
2013-03-10 01:51:00,48.8,33.8,30.28,East,90,3.0,4.0,56,0.00,,---,0.00,VWS V14.01,2013-03-10 06:51:00,
2013-03-10 01:56:00,48.5,34.0,30.27,East,88,3.0,4.0,57,0.00,,---,0.00,VWS V14.01,2013-03-10 06:56:00,
2013-03-10 03:01:00,48.0,33.9,30.27,East,86,1.0,4.0,58,0.00,,---,0.00,VWS V14.01,2013-03-10 07:01:00,
2013-03-10 03:06:00,47.5,33.5,30.27,East,101,1.0,1.0,58,0.00,,---,0.00,VWS V14.01,2013-03-10 07:06:00,
2013-03-10 03:11:00,47.3,33.7,30.27,ESE,106,0.0,2.0,59,0.00,,---,0.00,VWS V14.01,2013-03-10 07:11:00,
2013-03-10 03:16:00,47.1,33.5,30.28,ESE,107,0.0,1.0,59,0.00,,---,0.00,VWS V14.01,2013-03-10 07:16:00,
2013-03-10 03:21:00,46.8,33.7,30.28,ESE,108,0.0,0.0,60,0.00,,---,0.00,VWS V14.01,2013-03-10 07:21:00,
2013-03-10 03:26:00,46.6,33.5,30.28,ESE,113,0.0,0.0,60,0.00,,---,0.00,VWS V14.01,2013-03-10 07:26:00,
2013-03-10 03:31:00,46.2,33.5,30.28,ESE,113,0.0,0.0,61,0.00,,---,0.00,VWS V14.01,2013-03-10 07:31:00,
2013-03-10 03:36:00,45.7,33.4,30.28,ESE,115,0.0,0.0,62,0.00,,---,0.00,VWS V14.01,2013-03-10 07:36:00,
2013-03-10 03:41:00,45.9,33.6,30.27,ESE,105,0.0,1.0,62,0.00,,---,0.00,VWS V14.01,2013-03-10 07:41:00,
2013-03-10 03:46:00,46.1,33.8,30.27,East,101,0.0,1.0,62,0.00,,---,0.00,VWS V14.01,2013-03-10 07:46:00,
2013-03-10 03:51:00,46.5,33.8,30.27,East,101,1.0,2.0,61,0.00,,---,0.00,VWS V14.01,2013-03-10 07:51:00,
2013-03-10 03:56:00,46.9,33.8,30.27,ESE,106,0.0,1.0,60,0.00,,---,0.00,VWS V14.01,2013-03-10 07:56:00,
2013-03-10 04:01:00,46.9,33.8,30.27,East,98,0.0,1.0,60,0.00,,---,0.00,VWS V14.01,2013-03-10 08:01:00,
2013-03-10 04:06:00,46.9,33.8,30.27,ESE,108,0.0,1.0,60,0.00,,---,0.00,VWS V14.01,2013-03-10 08:06:00,
2013-03-10 04:11:00,46.9,33.8,30.27,ESE,110,0.0,1.0,60,0.00,,---,0.00,VWS V14.01,2013-03-10 08:11:00,
2013-03-10 04:16:00,46.7,33.6,30.27,ESE,109,0.0,1.0,60,0.00,,---,0.00,VWS V14.01,2013-03-10 08:16:00,
2013-03-10 04:21:00,46.4,33.7,30.27,ENE,72,1.0,1.0,61,0.00,,---,0.00,VWS V14.01,2013-03-10 08:21:00,
2013-03-10 04:26:00,46.1,33.8,30.27,ENE,72,0.0,1.0,62,0.00,,---,0.00,VWS V14.01,2013-03-10 08:26:00,
2013-03-10 04:31:00,45.6,33.8,30.27,ENE,72,0.0,0.0,63,0.00,,---,0.00,VWS V14.01,2013-03-10 08:31:00,
2013-03-10 04:36:00,44.9,33.9,30.27,ENE,72,0.0,1.0,65,0.00,,---,0.00,VWS V14.01,2013-03-10 08:36:00,
2013-03-10 04:41:00,44.3,33.7,30.27,ENE,72,0.0,0.0,66,0.00,,---,0.00,VWS V14.01,2013-03-10 08:41:00,
2013-03-10 04:46:00,44.0,33.4,30.27,ENE,72,0.0,0.0,66,0.00,,---,0.00,VWS V14.01,2013-03-10 08:46:00,
2013-03-10 04:51:00,44.7,33.7,30.27,ESE,105,2.0,2.0,65,0.00,,---,0.00,VWS V14.01,2013-03-10 08:51:00,
2013-03-10 04:56:00,45.6,33.8,30.27,ESE,117,2.0,3.0,63,0.00,,---,0.00,VWS V14.01,2013-03-10 08:56:00,
2013-03-10 05:01:00,46.1,33.8,30.27,ENE,76,2.0,3.0,62,0.00,,---,0.00,VWS V14.01,2013-03-10 09:01:00,
2013-03-10 05:06:00,46.1,33.8,30.27,ESE,105,2.0,3.0,62,0.00,,---,0.00,VWS V14.01,2013-03-10 09:06:00,
2013-03-10 05:11:00,45.7,33.4,30.27,East,99,1.0,3.0,62,0.00,,---,0.00,VWS V14.01,2013-03-10 09:11:00,
2013-03-10 05:16:00,45.6,33.8,30.27,East,101,0.0,2.0,63,0.00,,---,0.00,VWS V14.01,2013-03-10 09:16:00,
2013-03-10 05:21:00,45.5,33.7,30.27,SE,124,0.0,3.0,63,0.00,,---,0.00,VWS V14.01,2013-03-10 09:21:00,
2013-03-10 05:26:00,45.1,33.7,30.27,ENE,63,2.0,3.0,64,0.00,,---,0.00,VWS V14.01,2013-03-10 09:26:00,
2013-03-10 05:31:00,45.1,33.7,30.27,ENE,69,1.0,4.0,64,0.00,,---,0.00,VWS V14.01,2013-03-10 09:31:00,
2013-03-10 05:36:00,45.1,33.7,30.27,East,79,1.0,3.0,64,0.00,,---,0.00,VWS V14.01,2013-03-10 09:36:00,
2013-03-10 05:41:00,45.1,33.7,30.27,East,80,2.0,3.0,64,0.00,,---,0.00,VWS V14.01,2013-03-10 09:41:00,
2013-03-10 05:46:00,45.0,33.6,30.28,ENE,78,2.0,5.0,64,0.00,,---,0.00,VWS V14.01,2013-03-10 09:46:00,
2013-03-10 05:51:00,44.7,33.7,30.28,ESE,105,0.0,3.0,65,0.00,,---,0.00,VWS V14.01,2013-03-10 09:51:00,
2013-03-10 05:56:00,44.6,33.6,30.28,East,98,0.0,3.0,65,0.00,,---,0.00,VWS V14.01,2013-03-10 09:56:00,
2013-03-10 06:01:00,44.2,33.6,30.28,ESE,110,2.0,2.0,66,0.00,,---,0.00,VWS V14.01,2013-03-10 10:01:00,
2013-03-10 06:06:00,43.8,33.6,30.28,ENE,74,2.0,3.0,67,0.00,,---,0.00,VWS V14.01,2013-03-10 10:06:00,
2013-03-10 06:11:00,43.9,33.7,30.28,SE,124,0.0,2.0,67,0.00,,---,0.00,VWS V14.01,2013-03-10 10:11:00,
2013-03-10 06:16:00,43.8,33.6,30.28,East,84,1.0,2.0,67,0.00,,---,0.00,VWS V14.01,2013-03-10 10:16:00,
2013-03-10 06:21:00,43.9,33.7,30.28,East,86,1.0,2.0,67,0.00,,---,0.00,VWS V14.01,2013-03-10 10:21:00,
2013-03-10 06:26:00,44.1,33.5,30.28,East,88,2.0,3.0,66,0.00,,---,0.00,VWS V14.01,2013-03-10 10:26:00,
2013-03-10 06:31:00,44.2,33.6,30.28,ENE,68,2.0,4.0,66,0.00,,---,0.00,VWS V14.01,2013-03-10 10:31:00,
2013-03-10 06:36:00,44.1,33.5,30.28,ESE,109,0.0,3.0,66,0.00,,---,0.00,VWS V14.01,2013-03-10 10:36:00,
2013-03-10 06:41:00,43.6,33.4,30.28,ENE,76,1.0,3.0,67,0.00,,---,0.00,VWS V14.01,2013-03-10 10:41:00,
2013-03-10 06:46:00,43.3,33.5,30.28,East,96,1.0,3.0,68,0.00,,---,0.00,VWS V14.01,2013-03-10 10:46:00,
2013-03-10 06:51:00,43.1,33.6,30.28,ESE,109,1.0,4.0,69,0.00,,---,0.00,VWS V14.01,2013-03-10 10:51:00,
2013-03-10 06:56:00,43.0,33.5,30.28,East,99,1.0,3.0,69,0.00,,---,0.00,VWS V14.01,2013-03-10 10:56:00,
2013-03-10 07:01:00,42.9,33.4,30.28,SE,124,0.0,2.0,69,0.00,,---,0.00,VWS V14.01,2013-03-10 11:01:00,
2013-03-10 07:06:00,42.8,33.3,30.28,East,82,0.0,1.0,69,0.00,,---,0.00,VWS V14.01,2013-03-10 11:06:00,
2013-03-10 07:11:00,42.5,33.4,30.28,East,83,0.0,1.0,70,0.00,,---,0.00,VWS V14.01,2013-03-10 11:11:00,
2013-03-10 07:16:00,42.5,33.4,30.28,ESE,102,0.0,2.0,70,0.00,,---,0.00,VWS V14.01,2013-03-10 11:16:00,
2013-03-10 07:21:00,42.2,33.1,30.29,ESE,120,0.0,1.0,70,0.00,,---,0.00,VWS V14.01,2013-03-10 11:21:00,
2013-03-10 07:26:00,41.7,33.0,30.29,ESE,120,0.0,0.0,71,0.00,,---,0.00,VWS V14.01,2013-03-10 11:26:00,
2013-03-10 07:31:00,41.6,33.3,30.29,ESE,118,0.0,0.0,72,0.00,,---,0.00,VWS V14.01,2013-03-10 11:31:00,
2013-03-10 07:36:00,41.4,33.1,30.29,ESE,119,0.0,0.0,72,0.00,,---,0.00,VWS V14.01,2013-03-10 11:36:00,
2013-03-10 07:41:00,41.3,33.0,30.29,ESE,118,0.0,0.0,72,0.00,,---,0.00,VWS V14.01,2013-03-10 11:41:00,
2013-03-10 07:46:00,41.2,32.9,30.30,ESE,117,0.0,0.0,72,0.00,,---,0.00,VWS V14.01,2013-03-10 11:46:00,
2013-03-10 07:51:00,41.1,33.1,30.30,ESE,117,0.0,0.0,73,0.00,,---,0.00,VWS V14.01,2013-03-10 11:51:00,
2013-03-10 07:56:00,41.3,33.3,30.30,East,84,0.0,1.0,73,0.00,,---,0.00,VWS V14.01,2013-03-10 11:56:00,
2013-03-10 08:01:00,41.6,33.3,30.30,East,84,0.0,0.0,72,0.00,,---,0.00,VWS V14.01,2013-03-10 12:01:00,
2013-03-10 08:06:00,40.9,33.3,30.30,East,84,0.0,0.0,74,0.00,,---,0.00,VWS V14.01,2013-03-10 12:06:00,
2013-03-10 08:11:00,41.0,33.0,30.30,NNE,20,1.0,1.0,73,0.00,,---,0.00,VWS V14.01,2013-03-10 12:11:00,
2013-03-10 08:16:00,40.5,33.2,30.30,NNE,20,0.0,0.0,75,0.00,,---,0.00,VWS V14.01,2013-03-10 12:16:00,
2013-03-10 08:21:00,40.4,33.1,30.30,NNE,20,0.0,0.0,75,0.00,,---,0.00,VWS V14.01,2013-03-10 12:21:00,
2013-03-10 08:26:00,41.4,33.8,30.30,ENE,63,0.0,0.0,74,0.00,,---,0.00,VWS V14.01,2013-03-10 12:26:00,
2013-03-10 08:31:00,42.5,33.8,30.30,ENE,74,1.0,1.0,71,0.00,,---,0.00,VWS V14.01,2013-03-10 12:31:00,
2013-03-10 08:36:00,42.9,33.8,30.30,ENE,75,1.0,2.0,70,0.00,,---,0.00,VWS V14.01,2013-03-10 12:36:00,
2013-03-10 08:41:00,43.2,33.7,30.30,East,79,1.0,1.0,69,0.00,,---,0.00,VWS V14.01,2013-03-10 12:41:00,
2013-03-10 08:46:00,43.6,33.8,30.30,East,89,0.0,1.0,68,0.00,,---,0.00,VWS V14.01,2013-03-10 12:46:00,
2013-03-10 08:51:00,44.1,34.2,30.30,ENE,63,1.0,2.0,68,0.00,,---,0.00,VWS V14.01,2013-03-10 12:51:00,
2013-03-10 08:56:00,44.5,34.2,30.30,East,84,1.0,2.0,67,0.00,,---,0.00,VWS V14.01,2013-03-10 12:56:00,
2013-03-10 09:01:00,44.9,34.2,30.30,East,86,0.0,1.0,66,0.00,,---,0.00,VWS V14.01,2013-03-10 13:01:00,
2013-03-10 09:06:00,44.9,34.6,30.31,ESE,113,0.0,0.0,67,0.00,,---,0.00,VWS V14.01,2013-03-10 13:06:00,
2013-03-10 09:11:00,45.0,34.7,30.31,ESE,113,0.0,0.0,67,0.00,,---,0.00,VWS V14.01,2013-03-10 13:11:00,
2013-03-10 09:16:00,44.9,34.6,30.32,ESE,110,1.0,1.0,67,0.00,,---,0.00,VWS V14.01,2013-03-10 13:16:00,
2013-03-10 09:21:00,43.4,35.0,30.32,WNW,299,1.0,1.0,72,0.00,,---,0.00,VWS V14.01,2013-03-10 13:21:00,
2013-03-10 09:26:00,42.2,34.5,30.32,WNW,300,1.0,1.0,74,0.00,,---,0.00,VWS V14.01,2013-03-10 13:26:00,
2013-03-10 09:31:00,41.6,34.3,30.32,WNW,300,1.0,1.0,75,0.00,,---,0.00,VWS V14.01,2013-03-10 13:31:00,
2013-03-10 09:36:00,41.6,34.6,30.32,WNW,299,1.0,1.0,76,0.00,,---,0.00,VWS V14.01,2013-03-10 13:36:00,
2013-03-10 09:41:00,41.9,35.2,30.33,NW,312,2.0,2.0,77,0.00,,---,0.00,VWS V14.01,2013-03-10 13:41:00,
2013-03-10 09:46:00,42.2,35.2,30.33,NW,320,1.0,1.0,76,0.00,,---,0.00,VWS V14.01,2013-03-10 13:46:00,
2013-03-10 09:51:00,42.6,35.6,30.33,NW,323,0.0,0.0,76,0.00,,---,0.00,VWS V14.01,2013-03-10 13:51:00,
2013-03-10 09:56:00,43.2,35.8,30.33,NW,323,0.0,0.0,75,0.00,,---,0.00,VWS V14.01,2013-03-10 13:56:00,
2013-03-10 10:01:00,43.9,36.2,30.33,NW,323,0.0,0.0,74,0.00,,---,0.00,VWS V14.01,2013-03-10 14:01:00,
2013-03-10 10:06:00,44.7,36.6,30.33,NW,323,0.0,0.0,73,0.00,,---,0.00,VWS V14.01,2013-03-10 14:06:00,
2013-03-10 10:11:00,45.4,37.3,30.33,NW,323,0.0,0.0,73,0.00,,---,0.00,VWS V14.01,2013-03-10 14:11:00,
2013-03-10 10:16:00,46.3,38.1,30.33,NW,323,0.0,0.0,73,0.00,,---,0.00,VWS V14.01,2013-03-10 14:16:00,
2013-03-10 10:21:00,47.5,38.2,30.33,NW,323,0.0,0.0,70,0.00,,---,0.00,VWS V14.01,2013-03-10 14:21:00,
2013-03-10 10:26:00,48.8,39.5,30.32,NW,322,0.0,0.0,70,0.00,,---,0.00,VWS V14.01,2013-03-10 14:26:00,
2013-03-10 10:31:00,49.9,39.4,30.32,NW,322,0.0,0.0,67,0.00,,---,0.00,VWS V14.01,2013-03-10 14:31:00,
2013-03-10 10:36:00,51.2,40.2,30.32,SSE,163,0.0,0.0,66,0.00,,---,0.00,VWS V14.01,2013-03-10 14:36:00,
2013-03-10 10:41:00,52.5,39.5,30.32,ESE,110,1.0,1.0,61,0.00,,---,0.00,VWS V14.01,2013-03-10 14:41:00,
2013-03-10 10:46:00,53.4,39.5,30.32,SW,231,2.0,2.0,59,0.00,,---,0.00,VWS V14.01,2013-03-10 14:46:00,
2013-03-10 10:51:00,54.2,39.8,30.32,SSE,166,3.0,4.0,58,0.00,,---,0.00,VWS V14.01,2013-03-10 14:51:00,
2013-03-10 10:56:00,55.0,37.7,30.32,East,100,3.0,3.0,52,0.00,,---,0.00,VWS V14.01,2013-03-10 14:56:00,
2013-03-10 11:01:00,55.4,37.6,30.32,SE,136,1.0,1.0,51,0.00,,---,0.00,VWS V14.01,2013-03-10 15:01:00,
2013-03-10 11:06:00,56.3,38.4,30.32,South,179,2.0,2.0,51,0.00,,---,0.00,VWS V14.01,2013-03-10 15:06:00,
2013-03-10 11:12:00,57.1,36.5,30.32,SSW,203,2.0,2.0,46,0.00,,---,0.00,VWS V14.01,2013-03-10 15:12:00,
2013-03-10 11:17:00,57.1,36.5,30.32,SSE,167,3.0,3.0,46,0.00,,---,0.00,VWS V14.01,2013-03-10 15:17:00,
2013-03-10 11:22:00,57.3,36.7,30.32,SE,129,0.0,1.0,46,0.00,,---,0.00,VWS V14.01,2013-03-10 15:22:00,
2013-03-10 11:27:00,57.7,37.1,30.32,SW,222,3.0,4.0,46,0.00,,---,0.00,VWS V14.01,2013-03-10 15:27:00,
2013-03-10 11:32:00,57.8,36.6,30.32,SSW,208,2.0,4.0,45,0.00,,---,0.00,VWS V14.01,2013-03-10 15:32:00,
2013-03-10 11:37:00,58.1,36.9,30.32,SW,231,3.0,3.0,45,0.00,,---,0.00,VWS V14.01,2013-03-10 15:37:00,
2013-03-10 11:42:00,58.6,36.8,30.32,WSW,257,3.0,5.0,44,0.00,,---,0.00,VWS V14.01,2013-03-10 15:42:00,
2013-03-10 11:47:00,59.0,36.6,30.32,SSW,203,4.0,7.0,43,0.00,,---,0.00,VWS V14.01,2013-03-10 15:47:00,
2013-03-10 11:52:00,58.8,37.0,30.32,SE,133,1.0,3.0,44,0.00,,---,0.00,VWS V14.01,2013-03-10 15:52:00,
2013-03-10 11:57:00,59.1,36.7,30.32,SW,217,5.0,6.0,43,0.00,,---,0.00,VWS V14.01,2013-03-10 15:57:00,
2013-03-10 12:02:00,59.1,36.7,30.31,SE,146,1.0,3.0,43,0.00,,---,0.00,VWS V14.01,2013-03-10 16:02:00,
2013-03-10 12:07:00,59.1,37.2,30.31,SW,225,6.0,6.0,44,0.00,,---,0.00,VWS V14.01,2013-03-10 16:07:00,
2013-03-10 12:12:00,59.4,36.3,30.31,SSE,152,2.0,6.0,42,0.00,,---,0.00,VWS V14.01,2013-03-10 16:12:00,
2013-03-10 12:17:00,59.8,36.1,30.31,ESE,120,2.0,4.0,41,0.00,,---,0.00,VWS V14.01,2013-03-10 16:17:00,
2013-03-10 12:22:00,59.8,35.5,30.30,SSE,151,6.0,11.0,40,0.00,,---,0.00,VWS V14.01,2013-03-10 16:22:00,
2013-03-10 12:27:00,59.9,35.5,30.30,SSW,195,3.0,7.0,40,0.00,,---,0.00,VWS V14.01,2013-03-10 16:27:00,
2013-03-10 12:32:00,59.8,34.8,30.30,SSE,155,3.0,7.0,39,0.00,,---,0.00,VWS V14.01,2013-03-10 16:32:00,
2013-03-10 12:37:00,59.7,35.4,30.30,East,99,8.0,11.0,40,0.00,,---,0.00,VWS V14.01,2013-03-10 16:37:00,
2013-03-10 12:42:00,59.5,36.4,30.30,ESE,115,7.0,7.0,42,0.00,,---,0.00,VWS V14.01,2013-03-10 16:42:00,
2013-03-10 12:47:00,60.3,36.5,30.30,SSW,206,4.0,5.0,41,0.00,,---,0.00,VWS V14.01,2013-03-10 16:47:00,
2013-03-10 12:52:00,60.6,36.8,30.30,SSE,168,3.0,6.0,41,0.00,,---,0.00,VWS V14.01,2013-03-10 16:52:00,
2013-03-10 12:57:00,60.8,37.6,30.29,SSW,193,4.0,4.0,42,0.00,,---,0.00,VWS V14.01,2013-03-10 16:57:00,
2013-03-10 13:02:00,61.2,38.0,30.28,WSW,242,0.0,2.0,42,0.00,,---,0.00,VWS V14.01,2013-03-10 17:02:00,
2013-03-10 13:07:00,61.6,37.7,30.28,SE,143,5.0,8.0,41,0.00,,---,0.00,VWS V14.01,2013-03-10 17:07:00,
2013-03-10 13:12:00,61.5,37.6,30.27,South,177,4.0,7.0,41,0.00,,---,0.00,VWS V14.01,2013-03-10 17:12:00,
2013-03-10 13:17:00,61.3,38.0,30.27,WSW,256,2.0,5.0,42,0.00,,---,0.00,VWS V14.01,2013-03-10 17:17:00,
2013-03-10 13:22:00,61.2,38.0,30.27,ENE,61,5.0,5.0,42,0.00,,---,0.00,VWS V14.01,2013-03-10 17:22:00,
2013-03-10 13:27:00,61.6,37.7,30.27,SSE,156,4.0,4.0,41,0.00,,---,0.00,VWS V14.01,2013-03-10 17:27:00,
2013-03-10 13:32:00,61.9,38.0,30.26,South,172,1.0,3.0,41,0.00,,---,0.00,VWS V14.01,2013-03-10 17:32:00,
2013-03-10 13:37:00,62.2,37.6,30.27,ESE,115,0.0,2.0,40,0.00,,---,0.00,VWS V14.01,2013-03-10 17:37:00,
2013-03-10 13:42:00,62.7,37.4,30.26,SW,219,7.0,8.0,39,0.00,,---,0.00,VWS V14.01,2013-03-10 17:42:00,
2013-03-10 13:47:00,62.2,37.6,30.26,West,274,3.0,5.0,40,0.00,,---,0.00,VWS V14.01,2013-03-10 17:47:00,
2013-03-10 13:52:00,62.5,37.2,30.26,SSW,195,7.0,7.0,39,0.00,,---,0.00,VWS V14.01,2013-03-10 17:52:00,
2013-03-10 13:57:00,62.4,37.1,30.26,SE,127,5.0,6.0,39,0.00,,---,0.00,VWS V14.01,2013-03-10 17:57:00,
2013-03-10 14:02:00,62.2,37.6,30.25,East,86,2.0,2.0,40,0.00,,---,0.00,VWS V14.01,2013-03-10 18:02:00,
2013-03-10 14:07:00,62.9,38.2,30.25,West,270,4.0,4.0,40,0.00,,---,0.00,VWS V14.01,2013-03-10 18:07:00,
2013-03-10 14:12:00,62.8,38.1,30.25,SW,235,5.0,7.0,40,0.00,,---,0.00,VWS V14.01,2013-03-10 18:12:00,
2013-03-10 14:18:00,62.5,37.9,30.25,SW,225,6.0,6.0,40,0.00,,---,0.00,VWS V14.01,2013-03-10 18:18:00,
2013-03-10 14:23:00,62.6,38.0,30.25,SSW,198,6.0,7.0,40,0.00,,---,0.00,VWS V14.01,2013-03-10 18:23:00,
2013-03-10 14:28:00,62.4,38.4,30.24,ENE,77,0.0,3.0,41,0.00,,---,0.00,VWS V14.01,2013-03-10 18:28:00,
2013-03-10 14:33:00,63.3,38.6,30.24,South,191,1.0,7.0,40,0.00,,---,0.00,VWS V14.01,2013-03-10 18:33:00,
2013-03-10 14:38:00,63.6,38.9,30.24,East,85,3.0,7.0,40,0.00,,---,0.00,VWS V14.01,2013-03-10 18:38:00,
2013-03-10 14:43:00,63.8,39.0,30.23,West,259,0.0,4.0,40,0.00,,---,0.00,VWS V14.01,2013-03-10 18:43:00,
2013-03-10 14:48:00,64.7,38.5,30.23,NNE,32,1.0,4.0,38,0.00,,---,0.00,VWS V14.01,2013-03-10 18:48:00,
2013-03-10 14:53:00,64.8,37.9,30.23,West,263,4.0,6.0,37,0.00,,---,0.00,VWS V14.01,2013-03-10 18:53:00,
2013-03-10 14:58:00,64.7,38.5,30.23,South,176,5.0,8.0,38,0.00,,---,0.00,VWS V14.01,2013-03-10 18:58:00,
2013-03-10 15:03:00,64.6,38.4,30.22,SSW,201,10.0,11.0,38,0.00,,---,0.00,VWS V14.01,2013-03-10 19:03:00,
2013-03-10 15:08:00,64.4,38.3,30.22,SSW,196,4.0,9.0,38,0.00,,---,0.00,VWS V14.01,2013-03-10 19:08:00,
2013-03-10 15:13:00,64.6,37.8,30.22,ESE,113,4.0,7.0,37,0.00,,---,0.00,VWS V14.01,2013-03-10 19:13:00,
2013-03-10 15:18:00,64.8,38.6,30.22,West,259,2.0,3.0,38,0.00,,---,0.00,VWS V14.01,2013-03-10 19:18:00,
2013-03-10 15:23:00,65.6,38.7,30.23,SE,133,7.0,9.0,37,0.00,,---,0.00,VWS V14.01,2013-03-10 19:23:00,
2013-03-10 15:28:00,65.0,36.7,30.23,SSW,201,1.0,4.0,35,0.00,,---,0.00,VWS V14.01,2013-03-10 19:28:00,
2013-03-10 15:33:00,65.2,36.9,30.22,NNW,338,0.0,1.0,35,0.00,,---,0.00,VWS V14.01,2013-03-10 19:33:00,
2013-03-10 15:38:00,65.4,37.1,30.22,South,169,5.0,8.0,35,0.00,,---,0.00,VWS V14.01,2013-03-10 19:38:00,
2013-03-10 15:43:00,65.1,36.8,30.22,South,179,9.0,11.0,35,0.00,,---,0.00,VWS V14.01,2013-03-10 19:43:00,
2013-03-10 15:48:00,65.5,36.4,30.22,ESE,111,3.0,7.0,34,0.00,,---,0.00,VWS V14.01,2013-03-10 19:48:00,
2013-03-10 15:53:00,65.8,36.7,30.22,South,191,2.0,10.0,34,0.00,,---,0.00,VWS V14.01,2013-03-10 19:53:00,
2013-03-10 15:58:00,66.0,36.1,30.22,SE,124,3.0,7.0,33,0.00,,---,0.00,VWS V14.01,2013-03-10 19:58:00,
2013-03-10 16:03:00,66.0,36.1,30.22,ESE,122,5.0,10.0,33,0.00,,---,0.00,VWS V14.01,2013-03-10 20:03:00,
2013-03-10 16:08:00,66.5,36.5,30.22,ESE,103,5.0,8.0,33,0.00,,---,0.00,VWS V14.01,2013-03-10 20:08:00,
2013-03-10 16:13:00,66.4,36.5,30.21,ESE,108,4.0,7.0,33,0.00,,---,0.00,VWS V14.01,2013-03-10 20:13:00,
2013-03-10 16:18:00,66.5,36.5,30.21,SE,135,7.0,8.0,33,0.00,,---,0.00,VWS V14.01,2013-03-10 20:18:00,
2013-03-10 16:23:00,66.7,35.9,30.21,ESE,114,7.0,10.0,32,0.00,,---,0.00,VWS V14.01,2013-03-10 20:23:00,
2013-03-10 16:28:00,66.4,34.9,30.21,SSE,155,2.0,8.0,31,0.00,,---,0.00,VWS V14.01,2013-03-10 20:28:00,
2013-03-10 16:33:00,66.5,35.8,30.21,SSE,155,6.0,10.0,32,0.00,,---,0.00,VWS V14.01,2013-03-10 20:33:00,
2013-03-10 16:38:00,66.5,35.8,30.21,ESE,103,3.0,9.0,32,0.00,,---,0.00,VWS V14.01,2013-03-10 20:38:00,
2013-03-10 16:43:00,66.7,35.1,30.21,SSE,165,6.0,14.0,31,0.00,,---,0.00,VWS V14.01,2013-03-10 20:43:00,
2013-03-10 16:48:00,66.9,35.3,30.21,ESE,121,4.0,10.0,31,0.00,,---,0.00,VWS V14.01,2013-03-10 20:48:00,
2013-03-10 16:54:00,67.2,36.4,30.21,South,177,6.0,8.0,32,0.00,,---,0.00,VWS V14.01,2013-03-10 20:54:00,
2013-03-10 16:59:00,67.2,35.6,30.21,SSE,162,3.0,6.0,31,0.00,,---,0.00,VWS V14.01,2013-03-10 20:59:00,
2013-03-10 17:04:00,67.5,36.6,30.20,SSW,211,5.0,10.0,32,0.00,,---,0.00,VWS V14.01,2013-03-10 21:04:00,
2013-03-10 17:09:00,67.1,36.3,30.20,South,186,4.0,10.0,32,0.00,,---,0.00,VWS V14.01,2013-03-10 21:09:00,
2013-03-10 17:14:00,67.4,36.5,30.20,SW,231,2.0,5.0,32,0.00,,---,0.00,VWS V14.01,2013-03-10 21:14:00,
2013-03-10 17:19:00,67.7,36.0,30.20,South,172,5.0,8.0,31,0.00,,---,0.00,VWS V14.01,2013-03-10 21:19:00,
2013-03-10 17:24:00,67.3,36.5,30.19,ESE,121,3.0,9.0,32,0.00,,---,0.00,VWS V14.01,2013-03-10 21:24:00,
2013-03-10 17:29:00,67.4,36.5,30.20,SE,145,2.0,4.0,32,0.00,,---,0.00,VWS V14.01,2013-03-10 21:29:00,
2013-03-10 17:34:00,67.4,35.7,30.20,SE,135,6.0,8.0,31,0.00,,---,0.00,VWS V14.01,2013-03-10 21:34:00,
2013-03-10 17:39:00,66.9,35.3,30.20,ESE,102,4.0,10.0,31,0.00,,---,0.00,VWS V14.01,2013-03-10 21:39:00,
2013-03-10 17:44:00,66.6,36.6,30.20,South,174,4.0,5.0,33,0.00,,---,0.00,VWS V14.01,2013-03-10 21:44:00,
2013-03-10 17:49:00,66.8,35.2,30.19,SE,132,5.0,7.0,31,0.00,,---,0.00,VWS V14.01,2013-03-10 21:49:00,
2013-03-10 17:54:00,66.6,35.0,30.19,SE,134,8.0,10.0,31,0.00,,---,0.00,VWS V14.01,2013-03-10 21:54:00,
2013-03-10 17:59:00,66.2,35.5,30.19,East,96,3.0,10.0,32,0.00,,---,0.00,VWS V14.01,2013-03-10 21:59:00,
2013-03-10 18:04:00,66.0,35.3,30.20,SSE,148,3.0,6.0,32,0.00,,---,0.00,VWS V14.01,2013-03-10 22:04:00,
2013-03-10 18:09:00,66.0,34.5,30.19,SSE,149,8.0,8.0,31,0.00,,---,0.00,VWS V14.01,2013-03-10 22:09:00,
2013-03-10 18:14:00,65.9,34.4,30.19,SE,143,6.0,6.0,31,0.00,,---,0.00,VWS V14.01,2013-03-10 22:14:00,
2013-03-10 18:19:00,65.6,35.0,30.19,SE,124,3.0,8.0,32,0.00,,---,0.00,VWS V14.01,2013-03-10 22:19:00,
2013-03-10 18:24:00,65.3,35.5,30.19,SSE,155,6.0,7.0,33,0.00,,---,0.00,VWS V14.01,2013-03-10 22:24:00,
2013-03-10 18:29:00,65.2,34.6,30.19,SSE,152,1.0,7.0,32,0.00,,---,0.00,VWS V14.01,2013-03-10 22:29:00,
2013-03-10 18:34:00,65.1,35.3,30.19,SE,141,4.0,5.0,33,0.00,,---,0.00,VWS V14.01,2013-03-10 22:34:00,
2013-03-10 18:39:00,65.0,35.2,30.19,SE,131,3.0,6.0,33,0.00,,---,0.00,VWS V14.01,2013-03-10 22:39:00,
2013-03-10 18:44:00,65.0,35.2,30.18,ESE,119,4.0,9.0,33,0.00,,---,0.00,VWS V14.01,2013-03-10 22:44:00,
2013-03-10 18:49:00,64.9,35.1,30.19,ESE,122,3.0,7.0,33,0.00,,---,0.00,VWS V14.01,2013-03-10 22:49:00,
2013-03-10 18:54:00,64.8,35.0,30.19,SE,143,4.0,8.0,33,0.00,,---,0.00,VWS V14.01,2013-03-10 22:54:00,
2013-03-10 18:59:00,64.6,34.9,30.19,SE,145,4.0,8.0,33,0.00,,---,0.00,VWS V14.01,2013-03-10 22:59:00,
2013-03-10 19:04:00,64.5,35.5,30.19,ESE,118,3.0,6.0,34,0.00,,---,0.00,VWS V14.01,2013-03-10 23:04:00,
2013-03-10 19:09:00,64.3,35.4,30.19,SE,141,2.0,5.0,34,0.00,,---,0.00,VWS V14.01,2013-03-10 23:09:00,
2013-03-10 19:14:00,64.1,35.2,30.20,SSE,153,3.0,4.0,34,0.00,,---,0.00,VWS V14.01,2013-03-10 23:14:00,
2013-03-10 19:19:00,63.9,35.7,30.20,SE,139,3.0,3.0,35,0.00,,---,0.00,VWS V14.01,2013-03-10 23:19:00,
2013-03-10 19:24:00,63.7,35.6,30.20,SE,127,5.0,5.0,35,0.00,,---,0.00,VWS V14.01,2013-03-10 23:24:00,
2013-03-10 19:29:00,63.5,36.1,30.20,SSE,151,3.0,4.0,36,0.00,,---,0.00,VWS V14.01,2013-03-10 23:29:00,
2013-03-10 19:34:00,63.3,35.9,30.20,SE,136,4.0,4.0,36,0.00,,---,0.00,VWS V14.01,2013-03-10 23:34:00,
2013-03-10 19:39:00,63.1,35.7,30.20,SE,135,3.0,5.0,36,0.00,,---,0.00,VWS V14.01,2013-03-10 23:39:00,
2013-03-10 19:44:00,62.9,36.2,30.20,SE,142,4.0,4.0,37,0.00,,---,0.00,VWS V14.01,2013-03-10 23:44:00,
2013-03-10 19:50:00,62.7,36.1,30.21,SE,146,3.0,5.0,37,0.00,,---,0.00,VWS V14.01,2013-03-10 23:50:00,
2013-03-10 19:55:00,62.5,35.9,30.21,SE,131,3.0,4.0,37,0.00,,---,0.00,VWS V14.01,2013-03-10 23:55:00,
2013-03-10 20:00:00,62.3,35.7,30.21,SE,125,4.0,5.0,37,0.00,,---,0.00,VWS V14.01,2013-03-11 00:00:00,
2013-03-10 20:05:00,62.1,36.2,30.21,SE,124,5.0,5.0,38,0.00,,---,0.00,VWS V14.01,2013-03-11 00:05:00,
2013-03-10 20:10:00,61.9,36.0,30.21,SE,135,5.0,6.0,38,0.00,,---,0.00,VWS V14.01,2013-03-11 00:10:00,
2013-03-10 20:15:00,61.7,35.9,30.21,SE,134,4.0,6.0,38,0.00,,---,0.00,VWS V14.01,2013-03-11 00:15:00,
2013-03-10 20:20:00,61.5,36.3,30.21,SE,132,5.0,6.0,39,0.00,,---,0.00,VWS V14.01,2013-03-11 00:20:00,
2013-03-10 20:25:00,61.3,36.2,30.21,ESE,120,5.0,6.0,39,0.00,,---,0.00,VWS V14.01,2013-03-11 00:25:00,
2013-03-10 20:30:00,61.2,36.1,30.21,ESE,113,5.0,7.0,39,0.00,,---,0.00,VWS V14.01,2013-03-11 00:30:00,
2013-03-10 20:35:00,61.0,36.5,30.21,ESE,103,4.0,7.0,40,0.00,,---,0.00,VWS V14.01,2013-03-11 00:35:00,
2013-03-10 20:40:00,60.8,36.3,30.21,ESE,117,6.0,8.0,40,0.00,,---,0.00,VWS V14.01,2013-03-11 00:40:00,
2013-03-10 20:45:00,60.4,36.6,30.21,ESE,107,5.0,7.0,41,0.00,,---,0.00,VWS V14.01,2013-03-11 00:45:00,
2013-03-10 20:50:00,60.1,37.0,30.22,SE,126,6.0,8.0,42,0.00,,---,0.00,VWS V14.01,2013-03-11 00:50:00,
2013-03-10 20:55:00,59.8,36.7,30.21,ESE,119,6.0,8.0,42,0.00,,---,0.00,VWS V14.01,2013-03-11 00:55:00,
2013-03-10 21:00:00,59.4,36.9,30.21,ESE,115,6.0,8.0,43,0.00,,---,0.00,VWS V14.01,2013-03-11 01:00:00,
2013-03-10 21:05:00,59.2,36.7,30.21,ESE,113,4.0,7.0,43,0.00,,---,0.00,VWS V14.01,2013-03-11 01:05:00,
2013-03-10 21:10:00,59.0,37.1,30.22,East,93,6.0,7.0,44,0.00,,---,0.00,VWS V14.01,2013-03-11 01:10:00,
2013-03-10 21:15:00,59.0,37.1,30.22,SE,129,6.0,9.0,44,0.00,,---,0.00,VWS V14.01,2013-03-11 01:15:00,
2013-03-10 21:20:00,58.9,37.0,30.22,ESE,117,6.0,8.0,44,0.00,,---,0.00,VWS V14.01,2013-03-11 01:20:00,
2013-03-10 21:25:00,58.8,37.5,30.22,SE,131,5.0,7.0,45,0.00,,---,0.00,VWS V14.01,2013-03-11 01:25:00,
2013-03-10 21:30:00,58.7,37.4,30.23,SE,143,4.0,6.0,45,0.00,,---,0.00,VWS V14.01,2013-03-11 01:30:00,
2013-03-10 21:35:00,58.4,37.2,30.23,SE,136,5.0,5.0,45,0.00,,---,0.00,VWS V14.01,2013-03-11 01:35:00,
2013-03-10 21:40:00,58.3,37.6,30.23,SE,129,4.0,6.0,46,0.00,,---,0.00,VWS V14.01,2013-03-11 01:40:00,
2013-03-10 21:45:00,58.1,37.5,30.23,SE,139,4.0,5.0,46,0.00,,---,0.00,VWS V14.01,2013-03-11 01:45:00,
2013-03-10 21:50:00,57.9,37.3,30.23,SE,138,4.0,5.0,46,0.00,,---,0.00,VWS V14.01,2013-03-11 01:50:00,
2013-03-10 21:55:00,57.8,37.7,30.23,ESE,122,5.0,6.0,47,0.00,,---,0.00,VWS V14.01,2013-03-11 01:55:00,
2013-03-10 22:00:00,57.7,37.6,30.22,SE,124,6.0,7.0,47,0.00,,---,0.00,VWS V14.01,2013-03-11 02:00:00,
2013-03-10 22:05:00,57.5,37.5,30.23,ESE,121,8.0,9.0,47,0.00,,---,0.00,VWS V14.01,2013-03-11 02:05:00,
2013-03-10 22:10:00,57.4,37.9,30.22,ESE,118,6.0,12.0,48,0.00,,---,0.00,VWS V14.01,2013-03-11 02:10:00,
2013-03-10 22:15:00,57.0,38.0,30.22,SE,132,7.0,11.0,49,0.00,,---,0.00,VWS V14.01,2013-03-11 02:15:00,
2013-03-10 22:20:00,56.6,37.7,30.23,SE,134,10.0,12.0,49,0.00,,---,0.00,VWS V14.01,2013-03-11 02:20:00,
2013-03-10 22:25:00,56.3,37.9,30.22,SSE,156,7.0,14.0,50,0.00,,---,0.00,VWS V14.01,2013-03-11 02:25:00,
2013-03-10 22:30:00,56.0,37.6,30.22,SE,136,5.0,13.0,50,0.00,,---,0.00,VWS V14.01,2013-03-11 02:30:00,
2013-03-10 22:35:00,55.8,37.5,30.23,SE,144,4.0,11.0,50,0.00,,---,0.00,VWS V14.01,2013-03-11 02:35:00,
2013-03-10 22:40:00,55.7,36.8,30.23,ESE,120,10.0,12.0,49,0.00,,---,0.00,VWS V14.01,2013-03-11 02:40:00,
2013-03-10 22:45:00,55.6,36.8,30.22,SE,140,5.0,12.0,49,0.00,,---,0.00,VWS V14.01,2013-03-11 02:45:00,
2013-03-10 22:50:00,55.6,36.2,30.22,SSE,155,9.0,12.0,48,0.00,,---,0.00,VWS V14.01,2013-03-11 02:50:00,
2013-03-10 22:55:00,55.5,36.2,30.23,SE,129,8.0,11.0,48,0.00,,---,0.00,VWS V14.01,2013-03-11 02:55:00,
2013-03-10 23:00:00,55.3,36.0,30.23,SE,134,5.0,10.0,48,0.00,,---,0.00,VWS V14.01,2013-03-11 03:00:00,
2013-03-10 23:05:00,55.3,36.0,30.23,SE,124,4.0,10.0,48,0.00,,---,0.00,VWS V14.01,2013-03-11 03:05:00,
2013-03-10 23:10:00,55.2,35.3,30.24,SE,138,8.0,10.0,47,0.00,,---,0.00,VWS V14.01,2013-03-11 03:10:00,
2013-03-10 23:15:00,55.1,35.2,30.24,SSE,155,6.0,10.0,47,0.00,,---,0.00,VWS V14.01,2013-03-11 03:15:00,
2013-03-10 23:20:00,54.9,35.1,30.23,SE,143,5.0,8.0,47,0.00,,---,0.00,VWS V14.01,2013-03-11 03:20:00,
2013-03-10 23:25:00,54.7,34.9,30.23,SSE,152,6.0,8.0,47,0.00,,---,0.00,VWS V14.01,2013-03-11 03:25:00,
2013-03-10 23:30:00,54.5,34.7,30.23,ESE,122,6.0,9.0,47,0.00,,---,0.00,VWS V14.01,2013-03-11 03:30:00,
2013-03-10 23:35:00,54.5,34.7,30.23,SE,124,4.0,9.0,47,0.00,,---,0.00,VWS V14.01,2013-03-11 03:35:00,
2013-03-10 23:40:00,54.3,34.5,30.23,SE,124,4.0,7.0,47,0.00,,---,0.00,VWS V14.01,2013-03-11 03:40:00,
2013-03-10 23:45:00,54.1,33.8,30.23,SE,146,6.0,7.0,46,0.00,,---,0.00,VWS V14.01,2013-03-11 03:45:00,
2013-03-10 23:51:00,54.1,33.2,30.23,SSE,152,6.0,8.0,45,0.00,,---,0.00,VWS V14.01,2013-03-11 03:51:00,
2013-03-10 23:56:00,53.9,32.5,30.23,SE,136,5.0,9.0,44,0.00,,---,0.00,VWS V14.01,2013-03-11 03:56:00,